Ciudad Obregon, Mexico

9:32 PM MST on November 23, 2017 (GMT -0700)
Ciudad Obregon International

Weather History for MMCN - October, 2012

Change the Weather History Date:

Thursday, October 25, 2012

  Actual Average Record
Temperature  
Mean Temperature 78 °F -  
Max Temperature 96 °F 88 °F 104 °F (2017)
Min Temperature 60 °F 65 °F 57 °F (2013)
Cooling Degree Days 13    
Growing Degree Days 28 (Base 50)    
Moisture  
Dew Point 52 °F    
Average Humidity 44    
Maximum Humidity 94    
Minimum Humidity 12    
Precipitation  
Precipitation 0.00 in - - ()
Sea Level Pressure  
Sea Level Pressure 29.77 in    
Wind  
Wind Speed 4 mph ()    
Max Wind Speed 20 mph    
Max Gust Speed -    
Visibility 9.8 miles    
Events      
Averages and records for this station are not official NWS values.
T = Trace of Precipitation, MM = Missing Value Source: Averaged Metar Reports

Daily Weather History Graph

Daily Weather History Graph

Search for Another Location

Airport or City:

Trip Planner

Search our weather history database for the weather conditions in past years. The results will help you decide how hot, cold, wet, or windy it might be!

Date:

Astronomy

Oct. 25, 2012 Rise Set
Actual Time 6:25 AM MST 5:40 PM MST
Civil Twilight 6:01 AM MST 6:04 PM MST
Nautical Twilight 5:34 AM MST 6:31 PM MST
Astronomical Twilight 5:07 AM MST 6:59 PM MST
Moon 3:12 PM MST (10/25) 2:44 AM MST (10/25)
Length of Visible Light 12h 02m
Length of Day
11h 15m
Waxing Gibbous, 85% of the Moon is Illuminated
Oct 25
Waxing Gibbous
Oct 29
Full
Nov 6
Last Quarter
Nov 13
New
Nov 20
First Quarter

Hourly Weather History & Observations

Time (MST) Temp. Heat Index Dew Point Humidity Pressure Visibility Wind Dir Wind Speed Gust Speed Precip Events Conditions
3:57 AM 60.8 °F - 57.2 °F 88% 29.77 in 8.0 mi Calm Calm - N/A   Clear
4:41 AM 60.8 °F - 55.4 °F 82% 29.77 in 8.0 mi Calm Calm - N/A   Clear
5:43 AM 59.0 °F - 55.4 °F 88% 29.78 in 3.0 mi SE 3.5 mph - N/A   Clear
6:42 AM 59.0 °F - 57.2 °F 94% 29.80 in 8.0 mi Calm Calm - N/A   Partly Cloudy
7:45 AM 68.0 °F - 59.0 °F 73% 29.82 in 10.0 mi Calm Calm - N/A   Clear
7:50 AM 67 °F - 61 °F 74% 29.83 in 12 mi NNW 4.5 mph - -  
8:43 AM 77.0 °F - 57.2 °F 50% 29.82 in 10.0 mi Calm Calm - N/A   Clear
9:46 AM 82.4 °F 81.4 °F 53.6 °F 37% 29.83 in 10.0 mi West 2.3 mph - N/A   Clear
10:42 AM 86.0 °F - 50.0 °F 29% 29.81 in 10.0 mi WNW 9.2 mph - N/A   Clear
10:50 AM 88 °F - 58 °F 26% 29.84 in 12 mi West 11.2 mph - -  
11:43 AM 89.6 °F - 50.0 °F 26% 29.79 in 10.0 mi WNW 10.4 mph - N/A   Clear
12:43 PM 91.4 °F - 46.4 °F 21% 29.75 in 10.0 mi SW 4.6 mph - N/A   Clear
1:41 PM 93.2 °F - 44.6 °F 19% 29.73 in 10.0 mi WNW 5.8 mph - N/A   Clear
1:50 PM 94 °F - 47 °F 12% 29.75 in 12 mi WNW 11.2 mph - -  
2:43 PM 93.2 °F - 42.8 °F 17% 29.71 in 10.0 mi WNW 5.8 mph - N/A   Clear
3:45 PM 93.2 °F - 41.0 °F 16% 29.71 in 10.0 mi WNW 11.5 mph - N/A   Clear
4:41 PM 89.6 °F - 46.4 °F 22% 29.71 in 10.0 mi West 8.1 mph - N/A   Clear
4:50 PM 90 °F - 54 °F 20% 29.74 in 12 mi WSW 20.1 mph - -  
5:42 PM 84.2 °F - 50.0 °F 30% 29.73 in 10.0 mi West 11.5 mph - N/A   Clear
6:41 PM 78.8 °F - 53.6 °F 42% 29.74 in 10.0 mi West 6.9 mph - N/A   Clear
7:44 PM 75.2 °F - 57.2 °F 53% 29.76 in 10.0 mi WNW 3.5 mph - N/A   Clear